Weather History for KGPZ - January, 2013

Change the Weather History Date:

Wednesday, January 2, 2013

  Actual Average Record
Temperature  
Mean Temperature 18 °F -  
Max Temperature 21 °F 18 °F 49 °F (1927)
Min Temperature 15 °F -1 °F -37 °F (1979)
Degree Days  
Heating Degree Days 47    
Moisture  
Dew Point 16 °F    
Average Humidity 90    
Maximum Humidity 100    
Minimum Humidity 86    
Precipitation  
Precipitation 0.00 in - - ()
Sea Level Pressure  
Sea Level Pressure 29.89 in    
Wind  
Wind Speed 8 mph (SW)    
Max Wind Speed 15 mph    
Max Gust Speed -    
Visibility 7 miles    
Events      
Averages and records for this station are not official NWS values.
T = Trace of Precipitation, MM = Missing Value Source: NWS Daily Summary

Daily Weather History Graph

Daily Weather History Graph

Search for Another Location

Airport or City:

Trip Planner

Search our weather history database for the weather conditions in past years. The results will help you decide how hot, cold, wet, or windy it might be!

Date:

Astronomy

Jan. 02, 2013 Rise Set
Actual Time 8:00 AM CST 4:36 PM CST
Civil Twilight 7:25 AM CST 5:11 PM CST
Nautical Twilight 6:46 AM CST 5:50 PM CST
Astronomical Twilight 6:09 AM CST 6:27 PM CST
Moon 10:33 PM CST (1/2) 10:20 AM CST (1/2)
Length of Visible Light 9h 46m
Length of Day
8h 35m
Waning Gibbous, 75% of the Moon is Illuminated
Jan 2
Waning Gibbous
Jan 4
Last Quarter
Jan 11
New
Jan 18
First Quarter
Jan 26
Full

Hourly Weather History & Observations

Time (CST) Temp. Windchill Dew Point Humidity Pressure Visibility Wind Dir Wind Speed Gust Speed Precip Events Conditions
12:15 AM 15.8 °F 4.2 °F 12.2 °F 86% 29.88 in 8.0 mi South 9.2 mph - N/A   Overcast
12:35 AM 15.8 °F 6.1 °F 12.2 °F 86% 29.87 in 8.0 mi South 6.9 mph - N/A   Overcast
12:55 AM 15.8 °F 6.1 °F 12.2 °F 86% 29.87 in 8.0 mi South 6.9 mph - N/A   Overcast
1:15 AM 15.8 °F 6.1 °F 14.0 °F 93% 29.87 in 9.0 mi South 6.9 mph - N/A   Overcast
1:35 AM 17.6 °F 8.2 °F 14.0 °F 86% 29.87 in 10.0 mi SSW 6.9 mph - N/A   Overcast
1:55 AM 17.6 °F 8.2 °F 14.0 °F 86% 29.86 in 10.0 mi South 6.9 mph - N/A   Overcast
2:15 AM 17.6 °F 7.3 °F 14.0 °F 86% 29.86 in 9.0 mi South 8.1 mph - N/A   Overcast
2:35 AM 17.6 °F 6.4 °F 15.8 °F 93% 29.86 in 9.0 mi South 9.2 mph - N/A   Overcast
2:55 AM 17.6 °F 7.3 °F 15.8 °F 93% 29.86 in 10.0 mi SSW 8.1 mph - N/A   Overcast
3:15 AM 17.6 °F 6.4 °F 15.8 °F 93% 29.85 in 10.0 mi SSW 9.2 mph - N/A   Overcast
3:35 AM 17.6 °F 6.4 °F 15.8 °F 93% 29.85 in 10.0 mi South 9.2 mph - N/A   Overcast
3:55 AM 17.6 °F 8.2 °F 15.8 °F 93% 29.85 in 10.0 mi SSW 6.9 mph - N/A   Overcast
4:15 AM 17.6 °F 8.2 °F 15.8 °F 93% 29.85 in 10.0 mi South 6.9 mph - N/A   Overcast
4:35 AM 17.6 °F 6.4 °F 15.8 °F 93% 29.84 in 10.0 mi South 9.2 mph - N/A   Overcast
4:55 AM 17.6 °F 5.0 °F 15.8 °F 93% 29.84 in 9.0 mi South 11.5 mph - N/A   Overcast
5:15 AM 19.4 °F 7.9 °F 15.8 °F 86% 29.84 in 10.0 mi South 10.4 mph - N/A   Overcast
5:35 AM 19.4 °F 9.5 °F 15.8 °F 86% 29.84 in 10.0 mi South 8.1 mph - N/A   Overcast
5:55 AM 19.4 °F 8.6 °F 15.8 °F 86% 29.84 in 10.0 mi South 9.2 mph - N/A   Overcast
6:15 AM 19.4 °F 8.6 °F 15.8 °F 86% 29.84 in 10.0 mi South 9.2 mph - N/A   Overcast
6:35 AM 19.4 °F 8.6 °F 15.8 °F 86% 29.84 in 10.0 mi South 9.2 mph - N/A   Overcast
6:55 AM 19.4 °F 9.5 °F 15.8 °F 86% 29.84 in 10.0 mi South 8.1 mph - N/A   Overcast
7:15 AM 19.4 °F 7.9 °F 15.8 °F 86% 29.84 in 5.0 mi South 10.4 mph - N/A   Overcast
7:35 AM 19.4 °F 8.6 °F 15.8 °F 86% 29.84 in 2.5 mi South 9.2 mph - N/A   Overcast
7:55 AM 19.4 °F 7.9 °F 17.6 °F 93% 29.84 in 2.5 mi South 10.4 mph - N/A   Overcast
8:15 AM 19.4 °F 8.6 °F 15.8 °F 86% 29.84 in 2.5 mi SSE 9.2 mph - N/A   Overcast
8:35 AM 19.4 °F 7.9 °F 15.8 °F 86% 29.84 in 2.5 mi South 10.4 mph - N/A   Overcast
8:55 AM 17.6 °F 6.4 °F 15.8 °F 93% 29.84 in 3.0 mi South 9.2 mph - N/A   Overcast
9:15 AM 17.6 °F 6.4 °F 15.8 °F 93% 29.84 in 5.0 mi South 9.2 mph - N/A   Mostly Cloudy
9:35 AM 17.6 °F 7.3 °F 15.8 °F 93% 29.86 in 3.0 mi South 8.1 mph - N/A   Overcast
9:55 AM 19.4 °F 7.9 °F 15.8 °F 86% 29.86 in 5.0 mi South 10.4 mph - N/A   Overcast
10:15 AM 19.4 °F 8.6 °F 15.8 °F 86% 29.86 in 4.0 mi South 9.2 mph - N/A   Overcast
10:35 AM 19.4 °F 8.6 °F 15.8 °F 86% 29.87 in 3.0 mi South 9.2 mph - N/A   Overcast
10:55 AM 19.4 °F 7.9 °F 15.8 °F 86% 29.87 in 5.0 mi South 10.4 mph - N/A   Mostly Cloudy
11:15 AM 19.4 °F 8.6 °F 15.8 °F 86% 29.86 in 10.0 mi SSW 9.2 mph - N/A   Overcast
11:35 AM 19.4 °F 8.6 °F 15.8 °F 86% 29.86 in 10.0 mi South 9.2 mph - N/A   Overcast
11:55 AM 19.4 °F 10.4 °F 15.8 °F 86% 29.86 in 9.0 mi South 6.9 mph - N/A   Overcast
12:15 PM 19.4 °F 11.5 °F 15.8 °F 86% 29.86 in 4.0 mi SSW 5.8 mph - N/A   Overcast
12:35 PM 19.4 °F 9.5 °F 15.8 °F 86% 29.86 in 3.0 mi South 8.1 mph - N/A   Overcast
12:55 PM 19.4 °F 10.4 °F 17.6 °F 93% 29.86 in 1.8 mi South 6.9 mph - N/A   Overcast
1:15 PM 19.4 °F 12.8 °F 17.6 °F 93% 29.86 in 1.5 mi SSW 4.6 mph - N/A   Overcast
1:35 PM 19.4 °F 11.5 °F 17.6 °F 93% 29.86 in 1.2 mi SSW 5.8 mph - N/A   Overcast
1:55 PM 19.4 °F 12.8 °F 17.6 °F 93% 29.86 in 1.5 mi SW 4.6 mph - N/A   Overcast
2:15 PM 19.4 °F 12.8 °F 17.6 °F 93% 29.87 in 1.8 mi SSW 4.6 mph - N/A   Overcast
2:35 PM 19.4 °F 11.5 °F 17.6 °F 93% 29.87 in 2.0 mi SSW 5.8 mph - N/A   Overcast
2:55 PM 19.4 °F 11.5 °F 17.6 °F 93% 29.88 in 2.5 mi South 5.8 mph - N/A   Overcast
3:15 PM 19.4 °F 12.8 °F 17.6 °F 93% 29.89 in 3.0 mi SW 4.6 mph - N/A   Overcast
3:35 PM 19.4 °F 14.3 °F 19.4 °F 100% 29.89 in 4.0 mi SSW 3.5 mph - N/A   Overcast
3:55 PM 19.4 °F 12.8 °F 17.6 °F 93% 29.90 in 5.0 mi West 4.6 mph - N/A   Overcast
4:15 PM 19.4 °F 12.8 °F 17.6 °F 93% 29.90 in 7.0 mi WSW 4.6 mph - N/A   Overcast
4:35 PM 19.4 °F 12.8 °F 17.6 °F 93% 29.91 in 5.0 mi West 4.6 mph - N/A   Overcast
4:55 PM 19.4 °F 14.3 °F 17.6 °F 93% 29.91 in 4.0 mi SW 3.5 mph - N/A   Overcast
5:15 PM 19.4 °F 14.3 °F 17.6 °F 93% 29.92 in 5.0 mi West 3.5 mph - N/A   Overcast
5:35 PM 19.4 °F 14.3 °F 17.6 °F 93% 29.93 in 7.0 mi West 3.5 mph - N/A   Overcast
5:55 PM 19.4 °F 14.3 °F 17.6 °F 93% 29.94 in 7.0 mi West 3.5 mph - N/A   Overcast
6:15 PM 19.4 °F - 17.6 °F 93% 29.95 in 7.0 mi Calm Calm - N/A   Overcast
6:35 PM 19.4 °F - 17.6 °F 93% 29.95 in 7.0 mi Calm Calm - N/A   Overcast
6:55 PM 19.4 °F 14.3 °F 17.6 °F 93% 29.95 in 7.0 mi West 3.5 mph - N/A   Overcast
7:15 PM 19.4 °F 12.8 °F 17.6 °F 93% 29.96 in 7.0 mi WNW 4.6 mph - N/A   Overcast
7:35 PM 19.4 °F 11.5 °F 17.6 °F 93% 29.96 in 7.0 mi WNW 5.8 mph - N/A   Overcast
7:55 PM 19.4 °F 10.4 °F 17.6 °F 93% 29.96 in 7.0 mi West 6.9 mph - N/A   Overcast
8:15 PM 19.4 °F 8.6 °F 17.6 °F 93% 29.97 in 5.0 mi WNW 9.2 mph - N/A   Overcast
8:35 PM 19.4 °F 7.2 °F 17.6 °F 93% 29.98 in 10.0 mi NW 11.5 mph - N/A   Overcast
8:55 PM 19.4 °F 7.2 °F 17.6 °F 93% 29.98 in 10.0 mi NW 11.5 mph - N/A   Overcast
9:15 PM 21.2 °F 9.5 °F 17.6 °F 86% 29.98 in 10.0 mi NW 11.5 mph - N/A   Overcast
9:35 PM 19.4 °F 7.2 °F 17.6 °F 93% 29.98 in 5.0 mi NW 11.5 mph - N/A   Overcast
9:55 PM 19.4 °F 6.6 °F 17.6 °F 93% 29.99 in 5.0 mi NW 12.7 mph - N/A   Overcast
10:15 PM 19.4 °F 5.5 °F 15.8 °F 86% 30.00 in 7.0 mi WNW 15.0 mph - N/A   Overcast
10:35 PM 19.4 °F 7.9 °F 15.8 °F 86% 30.00 in 8.0 mi NW 10.4 mph - N/A   Overcast
10:55 PM 17.6 °F 4.3 °F 15.8 °F 93% 30.01 in 8.0 mi WNW 12.7 mph - N/A   Overcast
11:15 PM 17.6 °F 6.4 °F 15.8 °F 93% 30.02 in 8.0 mi WNW 9.2 mph - N/A   Overcast
11:35 PM 17.6 °F 6.4 °F 15.8 °F 93% 30.02 in 9.0 mi NW 9.2 mph - N/A   Overcast
11:55 PM 17.6 °F 5.7 °F 15.8 °F 93% 30.02 in 10.0 mi NW 10.4 mph - N/A   Overcast